Falfurrias, TX

9:44 PM CDT on July 28, 2016 (GMT -0500)
Falfurrias

Weather History for KBKS - March, 2013

Change the Weather History Date:

Saturday, March 2, 2013

  Actual Average (KNQI) Record (KNQI)
Temperature  
Mean Temperature 62 °F -  
Max Temperature 75 °F 71 °F 98 °F (1999)
Min Temperature 48 °F 51 °F 30 °F (2009)
Degree Days  
Heating Degree Days 4    
Growing Degree Days 12 (Base 50)    
Moisture  
Dew Point 32 °F    
Average Humidity 39    
Maximum Humidity 69    
Minimum Humidity 16    
Precipitation  
Precipitation 0.00 in - - ()
Sea Level Pressure  
Sea Level Pressure 30.32 in    
Wind  
Wind Speed 6 mph (North)    
Max Wind Speed 14 mph    
Max Gust Speed 21 mph    
Visibility 10 miles    
Events      
Averages and records for this station are not official NWS values.
T = Trace of Precipitation, MM = Missing Value Source: NWS Daily Summary

Daily Weather History Graph

Daily Weather History Graph

Search for Another Location

Airport or City:

Trip Planner

Search our weather history database for the weather conditions in past years. The results will help you decide how hot, cold, wet, or windy it might be!

Date:

Astronomy

Mar. 02, 2013 Rise Set
Actual Time 6:55 AM CST 6:34 PM CST
Civil Twilight 6:31 AM CST 6:57 PM CST
Nautical Twilight 6:04 AM CST 7:24 PM CST
Astronomical Twilight 5:37 AM CST 7:51 PM CST
Moon 11:40 PM CST (3/2) 9:56 AM CST (3/2)
Length of Visible Light 12h 25m
Length of Day
11h 38m
Waning Gibbous, 74% of the Moon is Illuminated
Mar 2
Waning Gibbous
Mar 4
Last Quarter
Mar 11
New
Mar 19
First Quarter
Mar 27
Full

Hourly Weather History & Observations

Time (CST) Temp. Dew Point Humidity Pressure Visibility Wind Dir Wind Speed Gust Speed Precip Events Conditions
12:15 AM 49.5 °F 37.8 °F 64% 30.24 in 10.0 mi ENE 3.5 mph - N/A   Clear
12:35 AM 48.0 °F 37.6 °F 67% 30.25 in 10.0 mi NE 5.8 mph - N/A   Clear
12:55 AM 50.9 °F 39.0 °F 64% 30.26 in 10.0 mi North 4.6 mph - N/A   Clear
1:15 AM 50.4 °F 39.0 °F 65% 30.27 in 10.0 mi North 4.6 mph - N/A   Clear
1:35 AM 50.5 °F 39.7 °F 66% 30.26 in 10.0 mi North 3.5 mph - N/A   Clear
1:55 AM 50.5 °F 39.4 °F 66% 30.26 in 10.0 mi WNW 3.5 mph - N/A   Clear
2:15 AM 49.5 °F 39.0 °F 67% 30.26 in 10.0 mi NW 4.6 mph - N/A   Clear
2:35 AM 49.5 °F 38.3 °F 65% 30.26 in 10.0 mi NNW 4.6 mph - N/A   Clear
3:15 AM 48.9 °F 37.6 °F 65% 30.25 in 10.0 mi NNW 4.6 mph - N/A   Clear
3:35 AM 49.1 °F 37.4 °F 64% 30.25 in 10.0 mi NW 4.6 mph - N/A   Clear
3:55 AM 48.7 °F 37.6 °F 65% 30.27 in 10.0 mi NW 6.9 mph - N/A   Clear
4:15 AM 49.5 °F 36.1 °F 60% 30.27 in 10.0 mi NNW 4.6 mph - N/A   Clear
4:35 AM 48.6 °F 36.3 °F 63% 30.29 in 10.0 mi North 5.8 mph - N/A   Clear
4:55 AM 49.6 °F 37.9 °F 64% 30.30 in 10.0 mi North 6.9 mph - N/A   Clear
5:15 AM 50.4 °F 39.9 °F 67% 30.32 in 10.0 mi North 8.1 mph - N/A   Clear
5:35 AM 50.0 °F 40.1 °F 69% 30.33 in 10.0 mi North 4.6 mph - N/A   Clear
5:55 AM 49.6 °F 39.2 °F 67% 30.33 in 10.0 mi NNW 3.5 mph - N/A   Clear
6:35 AM 48.7 °F 37.0 °F 64% 30.35 in 10.0 mi NNW 6.9 mph - N/A   Clear
6:55 AM 49.1 °F 34.9 °F 58% 30.36 in 10.0 mi NNW 8.1 mph - N/A   Clear
7:15 AM 50.0 °F 33.8 °F 54% 30.37 in 10.0 mi North 6.9 mph - N/A   Clear
7:35 AM 51.1 °F 33.3 °F 51% 30.37 in 10.0 mi North 8.1 mph - N/A   Clear
7:55 AM 53.2 °F 33.1 °F 46% 30.39 in 10.0 mi North 8.1 mph - N/A   Clear
8:15 AM 56.1 °F 32.4 °F 41% 30.40 in 10.0 mi North 12.7 mph 18.4 mph N/A   Clear
8:35 AM 57.0 °F 32.4 °F 39% 30.42 in 10.0 mi North 12.7 mph - N/A   Clear
9:15 AM 59.0 °F 32.4 °F 37% 30.43 in 10.0 mi North 11.5 mph 18.4 mph N/A   Clear
9:35 AM 60.4 °F 32.2 °F 35% 30.43 in 10.0 mi North 10.4 mph 19.6 mph N/A   Clear
9:55 AM 61.9 °F 31.5 °F 32% 30.43 in 10.0 mi North 12.7 mph 16.1 mph N/A   Clear
10:15 AM 62.8 °F 31.1 °F 30% 30.43 in 10.0 mi North 12.7 mph 20.7 mph N/A   Clear
10:35 AM 63.3 °F 30.2 °F 29% 30.43 in 10.0 mi North 11.5 mph 16.1 mph N/A   Clear
10:55 AM 63.9 °F 30.4 °F 28% 30.43 in 10.0 mi North 9.2 mph 17.3 mph N/A   Clear
11:15 AM 65.7 °F 29.8 °F 26% 30.42 in 10.0 mi North 12.7 mph - N/A   Clear
11:35 AM 66.7 °F 29.7 °F 25% 30.42 in 10.0 mi NNE 9.2 mph 19.6 mph N/A   Clear
11:55 AM 66.9 °F 28.9 °F 24% 30.41 in 10.0 mi NW 9.2 mph 19.6 mph N/A   Clear
12:35 PM 68.9 °F 28.2 °F 22% 30.39 in 10.0 mi North 6.9 mph 18.4 mph N/A   Clear
12:55 PM 69.4 °F 27.7 °F 21% 30.38 in 10.0 mi North 12.7 mph 19.6 mph N/A   Clear
1:15 PM 70.0 °F 27.1 °F 20% 30.36 in 10.0 mi NNW 6.9 mph 17.3 mph N/A   Clear
1:35 PM 71.2 °F 27.0 °F 19% 30.35 in 10.0 mi North 10.4 mph - N/A   Clear
1:55 PM 71.8 °F 26.4 °F 18% 30.33 in 10.0 mi North 11.5 mph 16.1 mph N/A   Clear
2:15 PM 72.9 °F 25.7 °F 17% 30.32 in 10.0 mi NNW 9.2 mph 18.4 mph N/A   Clear
2:35 PM 73.6 °F 25.7 °F 17% 30.31 in 10.0 mi NNW 8.1 mph 18.4 mph N/A   Clear
2:55 PM 73.8 °F 25.9 °F 17% 30.30 in 10.0 mi NNW 12.7 mph 17.3 mph N/A   Clear
3:15 PM 73.9 °F 25.9 °F 17% 30.29 in 10.0 mi WNW 10.4 mph 19.6 mph N/A   Clear
3:35 PM 75.2 °F 26.2 °F 16% 30.28 in 10.0 mi North 11.5 mph 17.3 mph N/A   Clear
3:55 PM 74.1 °F 25.7 °F 17% 30.27 in 10.0 mi NW 13.8 mph 18.4 mph N/A   Clear
4:15 PM 75.0 °F 26.2 °F 16% 30.27 in 10.0 mi NNW 11.5 mph 17.3 mph N/A   Clear
4:35 PM 74.5 °F 25.9 °F 16% 30.27 in 10.0 mi WNW 10.4 mph 17.3 mph N/A   Clear
4:55 PM 74.3 °F 25.7 °F 16% 30.27 in 10.0 mi NW 9.2 mph 18.4 mph N/A   Clear
5:15 PM 74.7 °F 25.9 °F 16% 30.26 in 10.0 mi NNW 9.2 mph - N/A   Clear
5:35 PM 73.9 °F 25.7 °F 17% 30.26 in 10.0 mi NW 8.1 mph - N/A   Clear
5:55 PM 73.4 °F 26.2 °F 17% 30.27 in 10.0 mi North 8.1 mph - N/A   Clear
6:15 PM 72.5 °F 26.4 °F 18% 30.27 in 10.0 mi North 5.8 mph - N/A   Clear
6:35 PM 70.2 °F 27.1 °F 20% 30.27 in 10.0 mi NNE 4.6 mph - N/A   Clear
6:55 PM 67.1 °F 27.3 °F 22% 30.27 in 10.0 mi NNE 3.5 mph - N/A   Clear
7:15 PM 66.2 °F 27.3 °F 23% 30.28 in 10.0 mi Calm Calm - N/A   Clear
7:35 PM 64.2 °F 27.3 °F 25% 30.28 in 10.0 mi NE 3.5 mph - N/A   Clear
7:55 PM 63.3 °F 27.5 °F 26% 30.29 in 10.0 mi ENE 3.5 mph - N/A   Clear
8:15 PM 62.8 °F 27.5 °F 26% 30.29 in 10.0 mi East 5.8 mph - N/A   Clear
8:35 PM 61.7 °F 27.7 °F 28% 30.29 in 10.0 mi East 4.6 mph - N/A   Clear
8:55 PM 60.3 °F 27.7 °F 29% 30.29 in 10.0 mi East 4.6 mph - N/A   Scattered Clouds
9:15 PM 59.5 °F 27.9 °F 30% 30.30 in 10.0 mi East 4.6 mph - N/A   Clear
9:35 PM 58.5 °F 28.0 °F 31% 30.31 in 10.0 mi SSE 6.9 mph - N/A   Clear
9:55 PM 56.8 °F 28.4 °F 34% 30.32 in 10.0 mi SE 4.6 mph - N/A   Clear
10:15 PM 55.9 °F 32.2 °F 41% 30.32 in 10.0 mi SSE 3.5 mph - N/A   Clear
10:35 PM 54.7 °F 34.9 °F 47% 30.32 in 10.0 mi Calm Calm - N/A   Clear
10:55 PM 53.2 °F 35.1 °F 50% 30.32 in 10.0 mi Calm Calm - N/A   Clear
11:15 PM 52.5 °F 34.7 °F 51% 30.32 in 10.0 mi SSW 3.5 mph - N/A   Clear
11:35 PM 50.7 °F 34.9 °F 55% 30.32 in 10.0 mi Calm Calm - N/A   Clear
11:55 PM 50.7 °F 35.6 °F 56% 30.31 in 10.0 mi Calm Calm - N/A   Clear